Probability
2 1 1 1 1 0 0 0 0 0 0 0 0 0 0 0 0 0 0 0 0 0 0 1 2 1 0 0 1 1 1 0 0 0 0 0 0 0 1 2 4 3 2 4 8 10 8 5 1
2 1 1 1 1 0 0 0 0 0 0 0 0 0 0 0 0 0 0 0 0 0 0 1 2 1 0 0 0 0 0 0 0 0 0 0 0 0 1 2 3 4 4 5 8 9 7 4 1
1 1 2 3 2 1 0 0 0 0 0 0 0 0 0 0 0 0 0 0 0 0 0 1 2 1 0 0 0 0 0 0 0 0 1 1 0 0 1 2 3 4 6 7 8 8 7 4 2
2 3 4 4 2 1 0 0 0 0 0 0 0 0 0 0 0 0 0 0 0 0 0 0 1 1 0 0 0 0 0 0 0 0 1 1 0 0 0 1 2 4 6 7 7 6 6 5 3
2 4 4 2 1 0 0 0 0 0 0 0 0 0 0 0 0 0 0 0 0 0 0 0 0 1 0 0 1 1 1 0 0 0 1 1 0 0 0 1 1 3 4 4 4 4 4 3 2
2 3 3 2 0 0 0 0 0 0 0 0 0 1 1 1 0 0 0 0 0 0 0 0 0 0 0 0 1 2 2 1 1 1 1 1 1 1 1 1 1 1 2 2 2 3 3 2 1
2 3 3 2 0 0 0 0 0 0 0 0 0 1 2 2 1 0 0 0 0 0 0 0 0 0 0 0 1 2 3 3 3 3 3 3 2 2 2 2 1 0 1 2 4 4 4 3 1
2 3 2 1 0 0 0 0 0 0 0 0 0 0 1 2 1 0 0 0 0 0 0 0 0 0 0 0 1 3 4 4 4 4 5 4 3 3 2 1 1 0 1 2 3 4 4 3 1
3 2 1 0 0 0 0 0 0 0 0 0 0 0 2 3 2 0 0 0 0 0 0 0 0 0 0 0 1 2 3 4 3 3 4 3 3 3 2 2 2 1 0 1 1 3 3 2 1
3 2 1 0 0 0 0 0 0 0 0 0 1 1 3 4 3 1 0 0 0 0 0 0 0 0 0 0 1 1 2 3 2 2 3 3 3 3 3 3 4 2 1 0 1 1 1 1 0
2 2 1 0 0 0 0 0 0 0 0 1 2 3 3 3 2 1 0 0 0 0 0 0 0 0 0 0 0 1 2 3 3 2 2 2 3 3 2 3 4 4 2 1 2 1 1 0 1
1 1 0 0 0 0 0 0 0 0 0 1 2 3 3 1 1 0 0 0 0 0 0 0 0 0 1 1 1 1 2 3 3 3 2 1 1 2 1 2 3 3 3 3 3 2 1 0 1
0 0 0 0 0 0 0 0 0 0 0 1 2 3 2 1 0 0 0 0 0 0 0 0 1 2 3 4 2 1 1 1 3 4 3 1 1 1 1 1 2 2 2 3 3 2 1 1 1
0 0 0 0 0 0 0 0 0 0 0 1 1 1 1 0 0 0 0 0 0 0 0 0 1 3 4 5 3 1 0 0 1 3 3 2 2 2 2 1 1 1 1 2 3 3 2 2 2
0 0 0 0 0 0 0 0 0 0 0 0 0 0 0 0 0 0 0 0 0 0 1 1 1 3 4 4 3 2 1 0 0 1 1 2 3 3 2 1 1 1 1 2 4 4 3 2 2
0 0 0 0 0 0 0 0 0 0 0 0 0 0 1 0 0 0 0 0 0 0 1 2 1 2 4 4 3 3 2 1 0 0 0 1 2 2 1 1 1 1 1 1 3 3 3 3 3
0 0 0 0 0 0 0 0 0 0 0 0 0 0 0 0 0 0 0 0 0 0 1 2 3 3 3 3 3 3 3 3 1 0 0 0 1 1 0 1 1 1 0 1 1 1 3 4 4
0 0 0 0 0 0 0 0 0 0 0 0 0 0 0 0 0 0 0 0 0 0 1 2 3 3 3 3 3 3 4 4 3 1 0 0 1 0 0 1 2 1 1 2 1 1 1 2 3
0 0 0 0 0 0 1 1 0 0 0 0 0 0 0 0 0 0 0 0 0 0 1 2 3 3 3 3 3 3 3 4 3 2 1 1 1 0 0 1 1 1 1 1 1 0 0 1 1
0 0 0 0 0 0 1 1 0 0 0 0 0 0 0 0 0 1 1 1 1 1 1 2 3 4 4 3 3 3 3 3 4 3 3 2 1 0 0 0 0 0 0 0 0 0 0 0 0
0 0 0 0 0 0 1 1 0 0 0 0 0 0 0 0 0 1 2 3 3 4 3 2 4 5 6 6 5 4 4 4 5 4 4 4 3 1 1 1 0 0 0 0 0 0 0 0 0
0 0 0 0 0 0 0 0 0 0 0 0 0 0 0 0 0 1 3 5 7 7 6 6 8 9 9 10 9 7 6 6 6 6 6 6 5 3 2 2 1 1 0 0 1 1 1 1 1
0 0 0 0 0 0 0 0 0 0 0 0 0 0 1 1 1 1 2 4 6 8 9 11 14 16 15 14 12 10 8 7 7 6 6 6 6 4 3 3 3 2 1 1 1 1 2 2 2
0 0 0 0 0 0 0 0 0 1 1 1 1 1 3 3 4 3 3 4 6 9 11 14 19 23 23 20 15 11 8 7 7 6 6 6 5 4 3 4 4 4 4 3 2 2 2 3 3
0 0 0 0 0 0 1 1 1 2 2 2 2 3 4 6 7 7 6 7 9 12 14 17 23 26 27 23 18 13 9 7 6 6 6 5 4 4 4 5 6 6 6 5 5 4 3 4 4
0 0 0 0 0 0 1 1 2 2 3 4 3 3 3 5 7 8 8 8 10 14 18 22 26 27 26 24 21 17 13 9 7 6 6 4 4 4 6 6 6 6 6 7 7 7 7 8 8
0 0 0 0 0 0 0 1 1 2 3 5 5 4 3 4 7 9 9 7 8 12 17 21 25 26 26 24 22 19 16 12 11 9 8 7 6 6 7 7 8 8 9 10 10 11 13 15 14
0 0 0 0 0 0 0 0 1 2 3 5 6 5 4 4 6 10 10 7 6 9 14 19 23 24 24 23 22 20 17 15 14 13 12 12 12 11 9 10 11 12 14 14 15 15 16 17 17
0 0 0 0 0 0 0 0 1 2 3 4 5 5 6 6 8 11 14 11 7 6 11 18 22 21 19 21 22 21 17 15 14 13 13 16 18 16 13 13 14 15 16 17 18 17 16 15 15
0 0 0 0 0 0 0 0 1 2 3 4 5 6 7 9 10 13 16 16 10 6 9 17 21 19 17 19 22 21 16 13 12 11 12 17 21 20 16 15 15 15 15 17 19 17 15 14 14
Wind_Speed
13 10 6 5 6 2 8 7 7 6 6 7 6 6 7 8 8 7 5 6 6 6 7 8 8 7 7 7 7 7 7 7 7 7 8 9 9 9 9 10 10 11 11 11 13 13 13 13 13
8 6 6 6 1 6 9 7 8 8 7 5 5 6 7 9 8 6 5 5 5 6 7 8 9 7 7 7 8 8 8 7 8 8 9 9 10 10 10 10 11 10 11 13 13 13 13 13 12
6 7 5 1 6 8 8 7 7 7 5 4 5 6 6 7 6 5 6 5 5 7 7 9 7 7 7 7 7 8 8 8 8 9 9 9 10 10 11 11 12 12 13 14 13 13 13 13 12
5 6 4 3 10 10 8 6 5 6 6 5 5 7 7 7 4 6 7 6 6 7 6 9 7 7 7 8 8 8 9 9 9 9 9 9 9 11 12 12 13 13 14 14 12 12 13 13 12
6 4 2 8 10 8 7 6 4 5 5 6 5 8 9 7 7 7 7 6 6 6 7 8 7 6 7 8 8 9 9 9 9 9 8 9 10 11 12 12 12 13 13 13 12 12 12 12 11
4 3 4 8 10 7 7 5 4 6 7 6 6 7 8 7 7 6 6 6 6 6 7 8 8 7 7 8 8 9 9 9 9 9 9 9 10 11 12 12 12 12 13 12 12 12 12 11 11
4 2 7 8 8 9 7 5 5 5 6 5 4 6 8 7 7 6 6 6 5 6 6 6 7 7 7 7 8 8 9 9 9 9 10 10 11 11 12 12 12 12 12 12 12 12 12 11 11
4 1 6 8 8 10 7 5 5 5 7 6 3 5 7 8 7 7 6 6 5 6 6 6 5 6 6 8 8 8 9 9 9 9 10 10 12 13 12 12 12 12 12 12 12 11 11 10 9
5 1 8 8 7 7 5 5 6 5 7 6 5 6 9 10 8 7 7 6 6 5 5 5 6 5 5 6 7 7 7 7 7 8 8 6 7 9 9 12 12 11 11 11 11 10 10 9 9
2 5 10 7 6 5 4 4 5 5 6 7 8 9 11 10 8 7 6 7 7 6 6 5 5 5 5 4 4 3 5 5 5 5 6 6 6 6 8 12 11 10 10 9 9 8 8 6 6
3 6 7 6 6 5 5 5 4 4 6 6 8 11 11 10 8 6 6 6 6 6 5 5 5 4 4 4 3 3 3 4 5 6 5 5 4 4 5 5 7 7 7 6 7 6 3 3 3
3 5 5 5 4 3 5 5 5 6 7 7 9 11 11 9 8 7 7 7 6 5 5 5 5 4 4 3 3 3 3 3 4 5 4 4 3 3 4 3 3 3 3 3 3 3 4 3 3
3 4 4 4 3 4 4 5 6 7 7 9 11 11 10 9 8 7 6 6 6 5 5 5 4 4 3 3 2 3 3 3 4 4 4 4 3 4 4 3 2 3 3 3 3 3 3 2 3
3 2 3 4 5 4 4 6 5 7 8 10 10 10 9 8 7 7 6 5 5 5 4 4 4 4 3 3 2 2 2 3 3 3 5 4 3 3 3 3 2 2 2 2 2 3 3 2 2
2 2 4 4 3 3 3 5 5 7 8 9 9 9 8 7 7 6 5 5 5 5 4 4 4 4 3 2 2 2 2 3 3 3 4 3 3 3 2 2 2 2 2 2 2 2 2 2 2
5 5 3 5 2 2 4 5 7 6 7 8 8 8 8 7 6 6 5 5 5 5 5 4 3 4 4 3 1 1 2 3 2 2 3 3 2 2 1 1 2 1 1 1 2 1 1 1 1
6 2 2 4 2 1 2 4 6 5 6 7 7 8 8 7 7 6 6 5 5 5 5 4 3 3 3 4 3 2 2 1 1 2 2 2 2 1 1 1 2 0 1 1 0 2 1 1 1
2 1 1 1 2 2 2 3 5 5 6 6 7 8 8 8 7 6 6 5 5 5 5 4 4 3 3 3 3 2 2 2 1 2 2 1 1 1 0 1 1 1 0 0 1 1 1 0 1
3 3 2 2 1 2 2 2 4 5 5 6 7 8 8 8 8 7 7 6 6 6 5 5 4 4 3 3 2 3 2 2 1 1 2 1 1 1 1 1 0 1 0 1 1 1 2 1 1
6 5 3 2 2 3 2 2 3 5 5 5 6 7 8 8 8 8 8 7 7 7 6 6 6 5 4 3 2 1 1 1 1 1 2 1 1 0 1 1 1 1 0 1 1 1 1 1 1
6 5 2 1 1 5 4 5 5 5 5 5 5 6 7 8 9 9 9 9 8 8 7 6 6 6 5 4 3 3 2 2 2 2 1 1 0 1 1 1 2 2 1 0 1 1 1 1 1
6 2 3 4 6 3 4 4 4 5 5 5 5 6 7 8 9 9 10 9 9 9 8 7 6 6 5 5 3 3 2 1 1 1 1 1 0 0 0 0 1 2 1 1 1 0 1 2 1
3 1 4 5 7 6 5 6 3 5 4 4 4 4 5 7 8 9 9 8 8 8 8 8 7 6 6 5 4 3 2 2 2 1 2 1 1 0 0 0 1 1 1 2 2 1 2 1 1
4 4 5 6 7 7 3 6 1 2 1 2 3 3 4 5 6 7 8 8 7 8 8 8 7 7 6 6 5 4 3 2 1 1 1 2 1 1 1 1 0 0 1 1 1 1 0 1 2
8 8 6 6 6 3 2 4 2 4 2 1 2 3 4 4 5 6 7 8 8 8 8 8 8 7 7 7 6 5 4 4 3 3 2 2 1 1 1 0 0 0 0 0 0 0 1 0 0
8 9 7 6 4 2 4 3 4 5 3 3 3 4 5 5 4 4 5 6 7 8 8 8 8 8 7 6 6 5 5 4 3 3 2 2 1 1 0 1 1 1 1 1 1 1 1 1 1
7 8 7 8 7 6 3 2 4 4 4 4 4 4 4 4 4 4 4 5 6 7 8 8 8 7 7 6 6 5 4 3 2 2 2 2 1 1 1 1 1 1 1 1 2 1 2 1 2
6 6 6 8 6 7 5 5 2 3 3 4 4 4 4 4 4 3 3 3 4 6 6 6 7 6 6 6 5 4 4 4 3 2 2 1 2 1 2 2 2 2 2 2 2 2 1 2 2
7 8 7 7 7 7 5 1 5 2 3 3 4 4 4 4 3 3 3 3 4 5 6 6 6 6 6 5 5 4 4 4 3 3 3 3 3 3 3 2 2 2 2 2 2 3 3 3 3
7 8 8 8 6 7 6 1 6 3 3 3 4 4 4 4 4 4 3 3 4 5 5 5 5 5 5 5 4 4 4 4 4 4 3 3 3 3 3 3 3 3 3 2 3 3 3 3 3
Wind_Direction
177 181 201 228 230 107 66 60 59 65 63 59 53 48 51 39 26 60 69 64 63 72 80 86 69 62 60 59 57 61 65 71 76 84 93 101 104 107 110 120 124 126 131 133 137 134 133 133 134
175 185 222 236 281 79 71 57 58 59 78 89 73 65 67 65 55 79 91 75 78 76 80 78 73 60 60 59 59 61 65 69 77 86 93 99 101 101 102 110 113 117 129 131 128 131 130 130 130
185 224 257 262 57 60 67 62 70 86 87 75 75 58 49 58 68 75 85 97 88 81 81 82 75 63 61 60 62 62 63 66 74 84 89 96 102 103 102 103 103 104 120 129 129 129 127 126 126
218 223 231 76 71 62 65 73 82 101 91 71 82 83 72 54 58 84 101 101 96 92 87 87 78 64 61 61 60 60 63 68 72 80 88 94 102 106 105 105 104 103 110 117 121 125 124 123 122
240 255 121 84 72 67 67 71 81 81 78 78 80 88 83 70 82 98 108 103 97 94 90 89 86 75 67 64 58 60 66 69 72 78 86 93 101 107 109 108 106 106 107 109 112 116 125 123 122
247 251 73 77 77 73 74 78 87 82 90 93 94 94 85 98 104 106 103 99 96 99 100 99 102 89 77 70 64 63 69 71 73 78 84 92 99 105 108 106 106 107 110 112 113 113 113 119 121
304 31 67 73 78 76 68 70 69 81 90 87 91 95 106 108 104 106 101 99 99 100 101 99 110 110 105 85 70 66 69 73 75 79 85 92 100 105 108 107 108 110 113 114 114 113 113 115 114
299 290 82 71 69 72 73 73 72 70 84 93 99 100 116 121 121 118 113 107 99 92 93 98 95 98 108 108 93 80 76 78 82 83 88 96 110 114 116 114 107 108 112 114 115 115 116 117 120
260 74 67 57 57 73 80 80 85 86 103 99 81 82 109 129 134 130 123 116 106 98 98 100 97 95 93 91 99 104 100 93 102 99 101 105 96 101 112 100 106 107 109 112 114 117 124 131 133
290 57 57 45 48 72 78 71 97 119 112 111 108 106 122 137 141 135 127 126 120 114 108 101 95 91 93 89 95 95 92 90 81 75 82 82 82 87 96 109 112 114 119 123 123 135 158 173 139
44 54 56 59 57 69 88 85 97 112 102 114 126 133 140 143 142 134 124 120 117 119 110 109 102 102 96 94 91 79 76 82 87 81 82 82 81 95 99 114 127 133 143 131 141 160 135 114 108
71 62 56 63 63 77 82 90 93 76 72 101 126 137 143 147 142 135 127 121 119 114 109 103 102 95 80 71 82 92 89 82 78 80 71 78 79 76 76 84 91 106 101 100 106 111 105 108 122
89 65 64 74 88 89 101 98 92 85 94 112 125 138 146 146 139 131 123 120 120 121 118 112 110 100 99 85 54 77 72 68 79 75 72 69 80 77 81 78 74 79 91 109 109 99 105 115 125
67 72 95 98 100 116 112 106 112 100 122 127 137 144 148 145 140 135 137 138 136 135 131 124 129 123 121 110 85 78 90 88 72 76 74 67 74 72 78 94 82 80 82 78 90 105 117 103 102
168 166 135 109 106 118 150 124 106 118 138 141 144 146 150 151 148 149 148 153 149 146 140 138 138 128 130 117 119 115 111 96 82 80 83 76 82 82 82 90 100 82 94 106 100 104 111 141 132
203 212 152 117 115 152 246 101 104 137 155 151 151 152 156 156 157 154 152 157 152 148 145 154 146 130 132 121 111 104 88 91 89 85 87 82 72 83 77 81 85 94 112 109 121 112 114 113 125
207 208 103 123 138 186 240 99 116 154 168 161 162 160 162 163 169 163 162 158 153 150 154 157 150 141 138 135 138 125 100 92 101 96 86 87 77 78 78 58 57 143 105 104 119 96 100 126 130
201 226 171 93 122 210 200 124 133 161 176 173 169 167 169 172 175 170 169 161 156 153 157 162 160 152 153 147 142 132 124 133 110 92 78 62 85 77 358 125 25 323 75 93 88 153 139 185 204
269 266 264 73 98 237 217 179 157 158 178 184 182 178 178 176 169 170 173 169 164 161 161 168 168 156 167 163 170 157 149 149 137 116 75 50 33 69 326 347 81 290 24 300 214 203 172 181 159
240 243 224 146 151 256 243 227 178 171 184 190 190 188 187 180 171 172 177 176 174 170 171 173 175 169 178 160 173 159 133 152 125 83 82 54 42 310 198 316 283 340 236 237 245 232 263 163 177
231 243 266 280 204 216 242 215 178 176 187 190 198 196 192 191 182 177 182 183 181 178 179 177 176 172 178 168 170 160 160 178 153 143 135 92 11 342 343 318 320 310 288 100 258 243 244 258 185
226 233 259 250 254 244 261 269 164 168 182 193 198 198 197 190 188 183 183 185 185 182 177 176 175 176 177 180 179 175 171 158 132 147 106 129 138 315 329 335 331 326 355 51 249 118 265 263 239
266 288 261 267 271 269 236 268 134 162 196 195 192 198 200 193 187 186 185 185 185 181 178 172 173 175 175 179 175 186 186 181 165 154 123 230 155 200 322 8 354 333 5 35 19 25 323 299 307
201 212 228 244 252 248 246 270 178 121 224 187 165 175 182 179 178 179 179 179 183 182 182 174 171 175 176 180 181 187 194 198 180 186 163 211 183 185 160 174 336 311 14 54 28 355 16 342 339
217 232 235 228 225 227 153 258 49 53 43 94 148 155 154 159 166 169 173 177 180 182 182 175 172 176 179 182 187 187 195 193 193 213 201 243 235 190 147 200 228 311 16 278 306 250 338 325 282
222 243 256 268 264 227 186 240 72 61 72 106 127 138 140 147 152 161 169 173 179 179 179 178 175 178 179 180 185 187 195 202 197 206 233 236 271 277 112 206 215 242 262 261 259 254 228 235 259
222 234 270 272 265 267 228 164 131 95 101 111 118 123 126 131 134 146 163 175 176 177 179 180 177 174 177 180 183 187 196 209 208 204 226 245 258 236 200 227 232 230 234 255 263 280 271 263 256
257 246 241 252 260 258 226 220 174 134 116 119 123 123 118 122 121 120 142 159 163 169 170 175 174 173 176 180 188 183 192 200 204 214 213 239 255 268 249 247 248 255 249 243 254 251 247 257 259
201 220 240 256 267 269 259 142 70 120 126 133 133 126 115 112 106 105 106 130 149 157 159 164 163 165 172 179 184 191 193 201 205 215 222 227 237 238 240 247 251 256 254 250 252 268 265 256 259
225 224 225 236 242 258 272 109 87 99 114 111 117 114 104 107 104 99 98 106 126 144 153 161 164 168 174 175 180 190 198 205 216 220 225 224 229 233 232 242 251 254 252 253 252 258 261 260 261